Location: Niedergestelen
(46.3129°N, 7.7822°E)
Time: 15:06:11
(UTC+00:00)

Meteor 1-5 Rocket - Pass Details

Date: 01 December 2020
Orbit: 788 x 916 km, 81.2° (Epoch: 27 January)

Event Time Altitude Azimuth Distance (km) Brightness Sun altitude
Rises 17:53:18 0° 348° (NNW) 3,550 7.5 -21.6°
Reaches altitude 10° 17:55:48 10° 347° (NNW) 2,594 6.8 -22.0°
Maximum altitude 18:01:44 82° 261° (W) 900 4.3 -23.0°
Drops below altitude 10° 18:07:27 10° 175° (S) 2,501 6.7 -24.0°
Sets 18:09:49 0° 174° (S) 3,415 7.4 -24.4°
